Regional Weather Roundup
Issued by NWS Bismarck, ND

Home | Current Version | Previous Version | Text Only | Print | Product List | Glossary On
Versions: 1 2 3 4 5 6 7 8 9 10 11 12 13 14 15 16 17 18 19 20 21 22 23 24 25 26 27 28 29 30 31 32 33 34 35 36 37 38 39 40 41 42 43 44 45 46 47 48 49 50
855
ASUS43 KBIS 261310
RWRBIS

NWR BROADCAST TEXT
NATIONAL WEATHER SERVICE BISMARCK ND
800 AM CDT TUE JUL 26 2016

NOTE: "FAIR" INDICATES FEW OR NO CLOUDS BELOW 12,000 FEET WITH NO
SIGNIFICANT WEATHER AND/OR OBSTRUCTIONS TO VISIBILITY.


CITY           SKY/WX    TMP DP  RH WIND       PRES   REMARKS
WILLISTON      CLOUDY    68  60  75 W3        30.07R
MINOT          SUNNY     68  63  84 NW6       30.01R
MINOT AFB      SUNNY     65  62  89 N5        30.00S
BISMARCK       SUNNY     71  67  87 NE13      29.97R
DICKINSON      CLOUDY    65  63  93 NW12G30   30.07R
GARRISON         N/A     70  66  87 NE3       30.01R
HETTINGER ARPT CLOUDY    67  64  90 W13       30.07R
JAMESTOWN      CLOUDY    69  67  93 N5        29.96F
BEACH          TSTM      63  63 100 S12G22    30.18R
CARRINGTON     FAIR      68  66  94 CALM      30.02S
HAZEN          FAIR      68  66  94 E5        30.02R
LINTON         FAIR      73  68  83 S14       29.97R
MANDAN         FAIR      72  66  83 E13       29.99R
OAKES            N/A    N/A N/A N/A MISG        N/A
STANLEY        FAIR      64  64 100 NE9G16    30.07R
WATFORD CITY     N/A    N/A N/A N/A MISG        N/A
$$

CITY           SKY/WX    TMP DP  RH WIND       PRES   REMARKS
GRAND FORKS    CLOUDY    71  63  75 NE3       29.95R
GRAND FORKS AF CLOUDY    68  66  93 N3        29.97R
DEVILS LAKE    SUNNY     69  66  90 CALM      30.01R
FARGO          CLOUDY    70  63  78 CALM      29.94F
CAVALIER       FAIR      68  64  88 N8        29.97S
GRAFTON        FAIR      70  70 100 N8        29.97S
GWINNER        FAIR      73  63  68 SW8       29.98R
LANGDON        FAIR      68  66  94 CALM      30.01R
ROLLA          FAIR      64  63  94 NW8       30.03S
WALHALLA       FAIR      68  64  88 N6        29.98S
$$

CITY           SKY/WX    TMP DP  RH WIND       PRES   REMARKS
ABERDEEN       MOSUNNY   68  61  78 SE8       30.00F
MOBRIDGE       SUNNY     76  65  68 SE8       29.94R
BUFFALO          N/A     66  62  87 N20       30.04F
RAPID CITY     PTSUNNY   71  56  58 N26G41    30.05R
GLASGOW        MOSUNNY   67  60  78 E13       30.03R
SIDNEY         CLOUDY    67  62  84 CALM      30.08R
WOLF POINT     CLOUDY    67  62  84 NE7       30.05S
GLENDIVE       CLOUDY    65  59  81 NE17      30.05F
MILES CITY     CLOUDY    69  56  62 E10       30.03R
BAKER          LGT RAIN  64  64 100 N18       30.11R
$$

CITY           SKY/WX    TMP DP  RH WIND       PRES   REMARKS
BILLINGS       MOSUNNY   64  50  60 NE3       30.08R
GREAT FALLS    CLEAR     60  49  66 S8        30.09R
REGINA         MOSUNNY   59  57  94 CALM      30.09S
ESTEVAN        PTSUNNY   64  61  88 NE3       30.07S
$$





USA.gov is the U.S. government's official web portal to all federal, state and local government web resources and services.